WetterOnline ( https://www.wetteronline.de )

Wetter aktuell Neunkirchen

Aktuelles Wetter: Tholey (398m)

6-stündlich | Neueste Meldungen
Ortszeit Temperatur Wetter
Fr, 17.09. 20:00 16.6° C bewölkt
Fr, 17.09. 14:00 17.6° C bedeckt
Fr, 17.09. 8:00 11.4° C bedeckt
Fr, 17.09. 2:00 12.0° C wolkenlos
Do, 16.09. 20:00 15.8° C bewölkt
Do, 16.09. 14:00 17.1° C wolkig
Do, 16.09. 8:00 14.9° C bedeckt
Do, 16.09. 2:00 16.1° C bedeckt
Ortszeit Temperatur Wetter
Fr, 17.09. 22:30 15.1° C leicht bewölkt
Fr, 17.09. 22:20 15.1° C leicht bewölkt
Fr, 17.09. 22:10 15.3° C leicht bewölkt
Fr, 17.09. 22:00 15.3° C leicht bewölkt
Fr, 17.09. 21:50 15.3° C leicht bewölkt
Fr, 17.09. 21:40 14.9° C leicht bewölkt
Fr, 17.09. 21:30 15.7° C wolkenlos
Fr, 17.09. 21:00 15.8° C wolkenlos
Fr, 17.09. 20:30 16.5° C fast wolkenlos
Fr, 17.09. 20:00 16.6° C bewölkt
Fr, 17.09. 19:30 17.7° C bewölkt
Ortszeit Relative Feuchte Sichtweite
Fr, 17.09. 20:00 66% 28 km
Fr, 17.09. 14:00 61% 30 km
Fr, 17.09. 8:00 92% 28 km
Fr, 17.09. 2:00 92% 30 km
Do, 16.09. 20:00 68% 65 km
Do, 16.09. 14:00 60% 60 km
Do, 16.09. 8:00 87% 22 km
Do, 16.09. 2:00 89% 40 km
Ortszeit Relative Feuchte Sichtweite
Fr, 17.09. 22:30 73% 60 km
Fr, 17.09. 22:20 73% -
Fr, 17.09. 22:10 73% -
Fr, 17.09. 22:00 74% 60 km
Fr, 17.09. 21:50 74% -
Fr, 17.09. 21:40 75% -
Fr, 17.09. 21:30 73% 55 km
Fr, 17.09. 21:00 71% 55 km
Fr, 17.09. 20:30 67% 60 km
Fr, 17.09. 20:00 66% 28 km
Fr, 17.09. 19:30 61% 60 km
Ortszeit Niederschlagsmenge Niederschlagsart
Fr, 17.09. 20:00 0.0 l/m2 in 12 Std. -
Fr, 17.09. 14:00 0.0 l/m2 in 6 Std. -
Fr, 17.09. 8:00 0.0 l/m2 in 12 Std. -
Fr, 17.09. 2:00 0.0 l/m2 in 6 Std. -
Do, 16.09. 20:00 0.0 l/m2 in 12 Std. -
Do, 16.09. 14:00 0.0 l/m2 in 6 Std. -
Do, 16.09. 8:00 1 l/m2 in 12 Std. Regen
Do, 16.09. 2:00 1 l/m2 in 6 Std. Regen
Ortszeit Niederschlagsmenge Niederschlagsart
Fr, 17.09. 22:30 0.0 l/m2 in 1 Std. -
Fr, 17.09. 22:20 keine Meldung -
Fr, 17.09. 22:10 keine Meldung -
Fr, 17.09. 22:00 0.0 l/m2 in 1 Std. -
Fr, 17.09. 21:50 keine Meldung -
Fr, 17.09. 21:40 keine Meldung -
Fr, 17.09. 21:30 0.0 l/m2 in 1 Std. -
Fr, 17.09. 21:00 0.0 l/m2 in 1 Std. -
Fr, 17.09. 20:30 0.0 l/m2 in 1 Std. -
Fr, 17.09. 20:00 0.0 l/m2 in 1 Std. -
Fr, 17.09. 19:30 0.0 l/m2 in 1 Std. -
Ortszeit Stärke Spitze Richtung
km/h Bft. km/h Grad Sektor
Fr, 17.09. 20:00 4 1 14 110° O
Fr, 17.09. 14:00 4 1 14 100° O
Fr, 17.09. 8:00 2 1 9 40° NO
Fr, 17.09. 2:00 4 1 18 90° O
Do, 16.09. 20:00 9 2 22 300° NW
Do, 16.09. 14:00 9 2 24 320° NW
Do, 16.09. 8:00 7 2 25 330° NW
Do, 16.09. 2:00 13 3 31 20° N
Ortszeit Stärke Spitze Richtung
km/h Bft. km/h Grad Sektor
Fr, 17.09. 22:30 7 2 7 50° NO
Fr, 17.09. 22:20 7 2 - 50° NO
Fr, 17.09. 22:10 6 1 - 50° NO
Fr, 17.09. 22:00 6 1 7 50° NO
Fr, 17.09. 21:50 6 1 - 50° NO
Fr, 17.09. 21:40 6 1 - 50° NO
Fr, 17.09. 21:30 6 1 7 50° NO
Fr, 17.09. 21:00 4 1 7 60° NO
Fr, 17.09. 20:30 0 0 4 - -
Fr, 17.09. 20:00 4 1 7 110° O
Fr, 17.09. 19:30 2 1 4 20° N
Ortszeit Untergrenze Bedeckung Gattung
total tief tief mittel hoch
Fr, 17.09. 20:00 1080 m 7/8 7/8 - - -
Fr, 17.09. 14:00 1500 m 8/8 8/8 - - -
Fr, 17.09. 8:00 1500 m 8/8 8/8 - - -
Fr, 17.09. 2:00 - 0/8 0/8 - - -
Do, 16.09. 20:00 1260 m 8/8 7/8 - - -
Do, 16.09. 14:00 900 m 6/8 6/8 - - -
Do, 16.09. 8:00 570 m 8/8 8/8 - - -
Do, 16.09. 2:00 630 m 8/8 8/8 - - -
Ortszeit Bedeckungsgrad in Achtel und Wolkenuntergrenze
Fr, 17.09. 22:30 5(8700m) 6(9000m) 6(9000m)
Fr, 17.09. 22:20 5(8700m) 6(9000m) 6(9000m)
Fr, 17.09. 22:10 3(8700m) 4(9000m) 5(9000m)
Fr, 17.09. 22:00 2(8700m) 3(9000m) 5(9000m)
Fr, 17.09. 21:50 2(8700m) 3(9000m) 4(9000m)
Fr, 17.09. 21:40 3(8700m)
Fr, 17.09. 21:30 1(8700m)
Fr, 17.09. 21:00 keine Wolken
Fr, 17.09. 20:30 2(8400m)
Fr, 17.09. 20:00 3(1080m) 7(1500m) 7(8700m)
Fr, 17.09. 19:30 4(1080m) 6(1500m) 8(8700m)
Ortszeit Luftdruck NN (hPa) Tendenz (hPa in 3 Std.)
Fr, 17.09. 20:00 1015 - 0,5
Fr, 17.09. 14:00 1016 - 0,7
Fr, 17.09. 8:00 1018 - 0,3
Fr, 17.09. 2:00 1019 + 0,1
Do, 16.09. 20:00 1018 + 0,3
Do, 16.09. 14:00 1017 + 0,1
Do, 16.09. 8:00 1016 + 1,0
Do, 16.09. 2:00 1014 + 0,6
Ortszeit Luftdruck NN (hPa) Tendenz (hPa in 3 Std.)
Fr, 17.09. 22:30 1016 + 0,9
Fr, 17.09. 22:20 1016 keine Meldung
Fr, 17.09. 22:10 1016 keine Meldung
Fr, 17.09. 22:00 1016 + 0,6
Fr, 17.09. 21:50 1016 keine Meldung
Fr, 17.09. 21:40 1016 keine Meldung
Fr, 17.09. 21:30 1016 + 0,5
Fr, 17.09. 21:00 1016 + 0,1
Fr, 17.09. 20:30 1015 - 0,2
Fr, 17.09. 20:00 1015 - 0,5
Fr, 17.09. 19:30 1015 - 0,6
Ortszeit Schneehöhe (cm)
Fr, 17.09. 20:00 -
Fr, 17.09. 14:00 -
Fr, 17.09. 8:00 -
Fr, 17.09. 2:00 -
Do, 16.09. 20:00 -
Do, 16.09. 14:00 -
Do, 16.09. 8:00 -
Do, 16.09. 2:00 -
Ortszeit Schneehöhe (cm)
Fr, 17.09. 22:30 -
Fr, 17.09. 22:20 -
Fr, 17.09. 22:10 -
Fr, 17.09. 22:00 -
Fr, 17.09. 21:50 -
Fr, 17.09. 21:40 -
Fr, 17.09. 21:30 -
Fr, 17.09. 21:00 -
Fr, 17.09. 20:30 -
Fr, 17.09. 20:00 -
Fr, 17.09. 19:30 -
Link zu dieser Seite / Seite empfehlen

Das Wetter in ...